RH
41 29 23 25 27 29 31 35 39 36 28 23 28 46 60 60 65 74 72 66 68 61 43 39 43 40 39 40 38 40 40 34 30 29 28 28 26 25 26 26 28 29 28 27 26 26 28 31 38 42 41 42 44 46 49 43 36 36 36 41 47 44 39 39 36 30 25 23 22 22 25 25 26 31 31 30 28 25 28 31 28 26 24 27 27 23 42
46 28 23 28 30 35 38 41 44 39 33 30 38 57 64 60 68 75 71 69 67 54 39 36 41 42 41 39 37 38 38 34 31 29 28 29 29 29 28 28 30 30 29 29 27 28 30 31 36 40 40 41 42 46 50 45 39 41 46 50 47 43 46 47 45 48 44 36 33 31 28 28 31 37 39 38 36 35 34 32 29 27 25 29 29 26 47
44 26 27 32 37 44 44 45 49 42 35 37 48 66 68 60 66 72 72 73 66 53 46 41 41 44 45 41 39 38 36 36 36 33 32 31 30 31 31 30 29 27 26 28 27 27 29 30 34 37 37 37 38 43 48 45 46 54 58 54 45 45 53 51 52 63 61 53 55 53 45 42 40 40 42 44 44 45 42 32 26 26 26 30 26 24 49
36 26 31 39 46 53 49 48 53 44 37 44 57 68 65 55 57 64 68 70 61 54 55 49 41 42 44 41 39 38 36 36 37 35 33 32 31 31 30 28 29 27 26 30 29 26 25 27 30 32 35 36 36 40 43 39 46 63 64 53 45 46 51 52 54 59 56 53 60 62 57 54 50 46 48 51 52 56 51 35 31 36 35 37 34 31 50
34 30 37 46 54 59 51 50 57 49 40 48 63 69 61 50 49 53 57 59 53 49 49 45 40 40 41 40 40 40 38 36 35 35 35 33 32 32 29 27 31 33 33 36 34 28 24 27 30 31 32 34 34 37 37 33 42 60 60 51 54 57 52 50 53 52 50 52 55 55 52 50 50 52 55 57 58 61 55 43 49 53 42 42 52 54 58
33 35 45 53 60 62 53 51 59 57 47 50 65 68 57 49 49 52 52 49 44 43 43 42 40 38 37 39 40 40 38 38 39 37 34 33 32 33 34 31 29 30 33 36 38 34 31 33 37 35 33 34 37 38 37 33 36 47 53 52 61 69 61 52 53 52 51 52 53 52 52 50 52 55 59 59 60 65 64 60 65 66 54 53 65 73 77
34 41 51 58 63 63 54 49 57 62 56 56 65 63 53 48 49 52 52 47 44 47 48 43 40 40 39 39 40 40 38 39 38 34 34 38 33 32 40 38 29 28 29 32 40 41 38 41 43 42 40 40 42 45 45 40 33 38 52 54 53 64 65 55 52 53 51 51 52 52 54 55 56 56 58 59 61 66 68 67 68 66 64 63 65 79 94
35 46 55 60 65 62 55 49 49 56 59 60 63 60 54 51 49 49 48 45 47 51 46 39 37 39 40 39 38 38 37 37 35 31 35 41 36 33 40 38 31 30 29 31 38 40 39 44 45 43 44 40 40 44 46 41 34 37 52 55 49 56 62 58 54 55 54 54 52 51 52 57 60 61 61 62 63 66 69 74 73 67 67 66 63 79 97
37 51 57 62 64 60 57 52 46 51 58 57 60 61 55 49 48 46 42 42 46 45 38 33 31 31 34 37 38 38 36 35 34 31 31 36 36 34 35 35 33 31 32 34 35 33 34 38 36 35 38 35 33 36 35 34 35 40 50 53 49 51 57 60 58 56 57 58 55 54 53 54 61 69 74 77 77 76 76 80 79 77 82 80 67 72 88
40 54 58 62 63 57 57 55 47 49 52 52 60 64 55 49 49 45 39 41 46 41 33 29 28 29 35 40 42 41 37 34 34 35 32 30 33 34 34 37 34 31 35 38 35 32 33 34 32 32 33 31 29 30 29 28 30 35 42 45 46 48 51 54 55 53 59 62 59 58 59 61 71 81 85 89 91 86 81 80 81 83 90 88 73 70 79
42 55 58 61 60 55 57 57 51 48 45 46 56 61 56 55 55 47 38 39 42 37 30 27 30 36 40 40 38 38 38 35 33 36 35 31 34 38 38 37 33 32 37 38 35 35 36 35 34 33 32 31 29 28 29 31 31 33 37 40 46 51 50 50 52 51 60 70 67 63 68 76 84 84 79 84 92 93 91 88 85 85 87 85 78 74 74
43 55 58 60 58 54 55 55 53 51 44 41 48 54 53 52 53 46 36 35 40 37 31 32 37 40 39 36 33 33 34 35 35 40 41 37 38 42 39 36 35 35 36 36 36 36 37 36 34 33 30 29 29 29 31 37 38 37 38 40 46 51 50 50 50 45 52 69 74 76 83 87 87 80 70 74 83 85 90 92 86 83 85 81 76 73 73
45 55 58 59 57 54 54 52 50 50 46 42 46 52 51 48 48 46 36 31 37 38 34 35 38 37 35 35 34 32 31 33 37 43 45 43 41 41 38 36 37 36 35 37 38 35 35 36 35 35 33 27 29 35 37 39 39 38 39 43 46 50 48 46 46 45 50 58 66 79 89 84 80 79 72 75 82 80 84 90 86 84 88 86 82 78 76
45 54 57 58 56 53 53 49 45 45 46 45 45 48 49 45 43 43 37 32 36 41 38 35 35 36 37 37 34 32 32 34 36 39 43 46 43 38 35 35 35 36 36 37 38 35 34 36 37 38 37 35 41 49 46 42 43 40 41 44 45 48 50 48 49 50 51 53 64 84 93 84 81 83 78 82 91 90 89 90 83 79 82 86 89 86 81
43 53 56 57 55 52 52 47 40 40 44 45 43 41 41 39 36 36 35 33 34 38 37 35 36 39 39 37 35 32 30 30 31 32 37 46 44 35 33 35 33 36 38 37 36 32 31 37 41 42 42 45 54 59 51 45 48 46 45 48 50 52 57 60 59 53 49 54 64 74 81 84 85 82 77 81 88 90 91 90 84 83 83 83 88 93 89
42 52 55 57 54 50 50 45 36 33 33 34 34 32 30 30 28 27 32 34 33 35 36 38 41 39 35 35 36 33 28 26 27 27 28 33 34 29 31 36 36 38 41 37 32 30 33 40 43 45 50 54 60 64 56 49 50 47 41 45 51 54 58 60 58 56 56 59 61 65 76 85 85 79 77 81 85 89 93 89 86 92 93 85 86 93 94
41 51 54 56 53 49 48 44 35 29 26 24 24 24 24 26 24 24 31 34 32 32 35 38 42 37 30 31 34 34 34 33 32 32 29 28 27 25 29 38 39 38 39 35 31 32 37 41 41 46 56 63 69 72 62 54 58 55 46 46 52 54 54 54 56 60 63 62 62 71 82 85 83 84 84 84 87 92 95 90 89 97 98 89 87 91 94
40 51 55 55 52 48 46 43 37 31 29 26 22 20 21 23 22 24 31 32 28 31 35 37 39 37 31 32 36 37 39 39 36 33 28 24 23 25 31 37 36 35 36 34 31 33 39 43 45 51 61 68 74 74 65 62 68 66 57 57 60 60 56 54 56 60 63 65 68 76 82 82 83 87 89 90 92 91 90 93 96 99 97 94 93 94 96
40 51 54 53 51 46 44 43 36 30 28 27 24 21 19 20 21 24 29 31 29 31 35 36 38 38 36 37 39 39 40 42 38 31 25 25 29 34 37 37 35 34 34 32 32 34 39 44 45 48 56 62 64 63 63 67 71 69 68 68 70 73 69 59 56 56 56 58 61 69 79 85 88 87 83 85 90 89 90 96 99 98 98 98 99 100 98
41 51 53 52 51 45 43 42 34 28 27 26 24 23 21 19 20 21 26 31 32 33 37 37 37 38 38 39 39 38 38 40 37 30 27 30 37 39 38 37 37 34 31 33 35 34 36 41 43 43 48 52 53 52 56 62 62 65 72 74 74 79 75 65 62 58 51 52 60 71 82 88 89 85 77 78 87 93 97 100 98 97 100 99 99 101 98
40 49 50 52 50 45 42 41 34 28 29 27 25 27 26 21 19 20 24 31 34 34 36 37 37 37 38 39 39 39 38 37 37 34 32 34 39 41 38 35 36 35 32 34 35 34 35 37 38 39 40 41 45 47 49 55 56 54 56 62 70 75 70 67 69 65 58 65 78 86 91 93 93 90 87 88 92 93 96 99 98 99 101 99 99 101 100
35 46 51 53 51 45 42 41 36 30 29 27 28 31 31 27 25 24 26 31 36 36 35 37 38 37 37 35 34 33 32 32 32 33 35 36 36 38 39 37 37 40 40 37 33 32 34 35 34 36 37 36 40 43 42 47 54 52 49 55 67 72 65 63 71 71 68 77 86 86 86 90 92 92 92 91 90 90 96 100 99 99 100 99 99 100 99
28 39 48 52 51 46 42 40 38 33 29 28 30 31 30 29 28 28 29 32 36 38 38 38 37 37 37 33 29 27 26 26 26 26 32 37 33 31 37 40 39 43 47 46 40 34 32 34 34 35 38 39 38 39 39 41 44 48 49 52 58 61 56 57 66 69 72 79 81 76 76 81 85 87 88 86 86 91 98 100 99 100 100 98 98 98 95
22 32 44 50 50 46 39 36 38 37 31 29 30 30 29 29 29 32 36 37 37 37 38 38 37 37 37 32 27 25 23 23 25 23 25 33 33 31 35 38 41 46 46 43 42 37 32 34 34 34 41 44 36 34 41 43 39 38 40 44 48 49 48 50 56 61 70 79 76 68 68 72 74 78 81 82 86 93 96 98 100 100 97 96 95 93 90
20 28 37 42 42 37 30 30 36 39 36 33 30 29 29 30 30 32 35 37 36 34 34 37 38 36 34 30 27 26 23 22 23 21 19 24 29 31 32 33 38 43 39 35 39 36 30 31 32 33 42 47 40 35 40 44 41 36 34 38 45 46 43 44 48 53 63 70 67 60 61 62 60 63 67 71 79 88 90 92 95 95 94 95 91 86 84
19 22 26 28 28 26 25 28 34 37 37 35 30 28 28 29 29 31 32 35 37 34 33 37 38 35 34 31 27 25 23 20 21 20 18 19 22 26 30 31 33 36 34 37 41 36 29 30 30 31 40 45 41 38 39 40 40 39 39 44 48 46 41 40 44 50 56 58 55 52 53 54 54 56 60 64 71 80 85 87 90 91 92 93 91 86 83
18 19 18 19 21 21 23 27 31 34 37 37 33 30 30 30 30 32 33 34 36 34 33 34 35 36 36 33 28 26 24 22 22 21 20 19 19 22 28 33 37 38 37 38 39 34 32 35 36 37 43 44 41 40 40 38 36 37 43 48 45 40 38 37 39 47 53 53 52 49 47 49 53 57 60 63 66 72 78 82 86 88 86 86 87 88 87
18 18 17 18 19 20 22 25 26 29 35 37 36 36 35 33 31 30 31 33 34 34 32 32 34 38 38 35 33 30 25 24 26 26 25 24 21 20 25 30 36 38 35 34 33 31 31 35 35 36 38 40 39 38 37 38 38 40 46 49 47 49 50 42 36 42 47 48 49 48 45 47 52 56 60 61 59 58 60 65 73 81 84 83 83 83 84
18 17 17 18 18 19 23 25 26 29 32 35 38 39 39 38 35 30 29 32 34 33 32 32 34 37 37 37 38 34 27 27 29 28 28 28 26 25 27 29 34 38 36 32 31 30 30 33 36 37 39 41 40 34 32 38 44 46 50 54 55 60 62 52 41 41 45 47 48 47 45 48 52 55 56 56 53 50 49 51 57 65 71 75 77 77 78
18 18 18 18 18 19 23 27 30 33 34 37 40 41 39 39 38 32 30 31 33 33 32 31 33 37 38 39 39 35 30 30 28 24 25 28 29 31 33 34 37 38 35 30 31 31 29 31 36 41 44 45 39 30 29 36 41 42 47 54 55 55 58 58 52 47 46 49 50 48 47 50 53 54 53 54 55 53 49 49 51 53 56 61 63 65 69
19 19 20 21 19 18 24 31 33 33 36 42 45 42 38 38 37 33 29 29 31 32 30 30 34 37 36 37 36 33 30 29 26 25 28 32 33 33 34 36 37 36 32 31 32 32 30 31 35 39 40 40 36 28 26 33 39 40 42 49 53 51 52 55 55 50 48 50 49 47 49 52 52 51 50 52 55 53 48 48 48 47 49 55 55 55 60
21 21 23 24 20 18 25 34 36 33 35 41 43 40 39 39 36 32 29 29 31 32 29 30 34 33 31 35 37 32 28 28 29 29 31 35 37 35 34 36 37 35 33 32 31 31 33 34 34 35 36 36 32 27 27 36 43 42 39 41 45 47 48 50 51 50 50 49 45 42 45 46 45 45 45 46 49 48 44 44 43 41 43 48 48 48 52
24 25 25 25 22 19 25 36 40 38 37 37 34 33 37 39 36 32 30 30 32 32 29 30 33 31 31 38 40 33 30 32 31 28 28 31 35 35 34 36 36 34 34 34 31 32 36 33 28 31 35 33 29 29 34 40 42 41 40 40 42 42 43 45 45 43 44 46 43 38 38 40 41 43 45 45 46 45 43 42 42 42 42 42 41 42 45
28 27 26 25 23 20 25 37 43 41 38 35 30 31 37 41 38 33 31 30 31 31 30 32 32 30 31 36 35 32 33 34 31 27 26 28 31 31 30 32 32 32 35 36 32 31 33 30 26 27 30 28 29 35 41 40 38 38 40 40 41 42 42 41 41 39 40 42 41 37 37 40 43 43 44 44 44 45 44 42 41 40 39 38 39 41 43
30 29 28 27 23 21 28 40 45 41 36 32 30 32 39 43 39 33 31 32 31 29 30 33 32 29 31 33 32 31 34 36 34 33 31 29 29 31 29 27 29 32 37 38 31 26 28 32 30 27 27 29 33 37 38 35 34 35 36 36 38 40 39 38 39 42 43 42 41 39 39 40 40 40 41 40 40 42 42 41 40 40 37 36 39 41 42
38 41 42 40 37 38 42 44 41 39 36 33 30 30 37 43 41 35 32 33 31 29 30 31 29 27 29 31 32 33 36 35 34 35 33 29 29 30 28 26 29 36 37 33 27 25 29 35 32 26 27 33 38 39 38 36 35 35 36 38 39 39 39 40 42 44 46 46 44 41 38 36 36 39 40 40 40 41 41 40 40 40 39 38 40 41 41
51 53 53 52 50 50 50 43 34 30 31 30 28 28 34 40 40 36 35 34 31 31 33 31 29 32 35 33 32 34 35 32 30 29 30 29 28 28 27 26 31 37 34 28 27 31 33 33 31 29 32 37 40 42 43 43 42 41 42 43 43 41 40 41 41 40 41 42 41 39 36 34 36 38 38 38 40 42 42 41 40 40 41 41 42 41 42
59 58 60 59 53 49 47 40 29 25 28 31 33 33 35 37 35 33 36 36 32 34 37 35 33 38 39 35 34 37 35 31 28 26 28 30 29 26 26 28 32 34 31 29 34 38 34 29 29 32 37 39 41 45 47 47 47 48 47 46 45 42 38 39 42 39 35 34 36 36 34 33 35 37 37 37 40 42 42 41 41 42 43 44 45 46 46
63 64 64 58 50 46 43 35 28 30 36 39 38 36 34 34 33 33 35 35 33 34 38 37 37 41 40 34 35 39 37 31 27 23 26 33 33 27 26 28 30 30 29 31 35 37 34 30 29 33 36 36 38 44 48 47 47 50 48 45 43 39 36 40 46 45 41 40 42 43 42 40 38 38 38 38 39 41 42 42 42 44 46 46 47 48 49
69 66 58 50 46 42 36 30 31 38 41 37 34 33 32 32 34 35 35 34 33 35 39 39 41 45 44 36 33 36 37 36 32 26 25 33 36 30 26 27 29 29 30 32 33 32 32 32 32 33 34 34 36 43 48 46 46 49 48 44 42 41 41 44 47 46 46 47 48 47 48 47 45 42 40 39 39 40 41 42 43 46 49 49 48 49 50
70 60 49 44 42 37 33 32 37 40 36 31 32 34 33 34 38 37 33 33 34 38 42 41 38 39 41 38 35 34 35 37 36 30 27 32 35 31 28 29 30 30 32 33 31 28 28 31 32 32 32 33 37 42 44 42 43 47 47 45 44 46 48 49 48 48 48 48 47 46 48 49 49 47 45 43 42 42 43 45 47 50 51 51 52 52 53
57 47 42 42 40 36 36 36 36 35 31 30 34 37 35 35 38 36 33 34 36 37 41 44 41 37 38 40 40 38 36 36 34 29 26 30 33 31 28 28 28 31 35 35 31 27 29 34 35 33 32 35 40 42 40 39 42 46 46 45 46 49 51 51 49 49 49 48 48 48 48 49 50 49 47 46 46 46 46 48 50 51 52 53 53 54 54
45 40 41 43 41 38 37 34 33 33 32 32 37 42 41 37 35 34 33 36 39 39 41 46 44 39 38 41 41 37 35 36 34 28 26 30 32 29 27 27 29 33 36 34 30 29 34 36 34 32 33 37 41 41 40 41 44 46 44 42 42 45 49 51 51 51 52 52 53 52 51 50 51 50 48 47 48 48 48 50 52 54 55 55 54 55 56
44 42 43 42 38 36 35 35 34 36 37 34 35 41 44 41 37 34 32 35 38 39 41 42 39 36 38 42 40 35 34 34 32 30 31 33 31 28 29 32 34 34 34 32 30 31 33 31 28 29 35 40 42 43 43 44 45 45 45 45 44 45 49 52 52 52 52 53 55 55 54 53 53 51 50 50 51 50 50 52 55 58 59 58 56 57 57
45 43 42 41 38 36 37 39 37 35 35 33 30 29 33 34 32 31 34 38 38 38 40 40 37 35 38 41 39 35 32 30 30 31 32 30 30 32 34 33 32 32 33 33 34 35 35 32 30 33 37 39 41 43 45 45 45 45 46 47 49 50 51 51 51 51 51 53 55 56 55 55 56 55 54 54 55 56 55 56 57 60 61 60 58 59 59
44 41 37 38 40 38 37 37 36 32 30 29 27 25 26 27 29 33 40 43 40 37 40 40 36 34 36 38 37 34 31 29 31 34 33 30 34 39 38 33 32 35 37 38 38 36 32 30 30 33 36 39 41 44 45 46 46 47 47 47 49 52 53 53 53 54 54 55 56 58 58 58 60 60 59 58 59 59 59 61 61 61 62 62 60 61 62
42 38 33 34 38 37 34 33 35 35 34 32 32 32 34 36 38 40 44 44 41 40 42 42 39 37 37 37 35 33 30 28 33 37 35 32 36 39 36 34 36 38 40 42 41 33 28 29 32 36 39 41 42 44 45 46 47 48 48 50 52 54 56 56 57 59 60 60 61 62 61 62 64 65 64 64 62 61 62 65 64 61 61 62 63 64 64
41 37 34 33 33 32 32 33 36 39 41 41 42 42 41 40 40 42 45 47 45 42 41 39 36 35 36 35 34 32 29 29 35 39 35 32 37 41 40 40 40 37 35 37 34 26 26 33 38 41 43 43 43 43 45 48 51 52 53 54 56 58 60 61 62 64 65 65 65 65 65 65 67 68 67 66 65 64 65 66 63 59 59 62 63 64 65
39 36 36 37 35 35 37 38 36 37 40 44 45 43 39 39 42 45 48 48 45 43 41 38 33 33 35 34 33 31 30 31 35 36 33 34 39 41 41 45 47 42 34 29 27 26 31 38 41 43 44 45 45 47 49 51 53 56 58 59 62 63 64 66 67 69 70 70 69 70 70 69 69 68 68 68 68 67 67 65 62 60 62 63 62 63 65
41 38 39 40 40 40 41 40 36 35 38 42 43 39 36 39 44 47 48 47 45 42 39 36 34 34 35 34 34 36 36 33 32 33 34 36 37 35 36 41 43 37 30 27 29 33 38 41 43 45 47 47 48 50 53 54 56 59 61 63 65 66 66 67 69 71 73 74 73 72 72 72 70 70 71 71 71 70 69 67 65 64 66 66 64 64 65
43 42 42 43 42 40 39 36 35 34 35 35 36 36 35 38 42 44 45 46 43 37 34 34 33 33 35 37 39 41 40 36 32 34 36 35 33 32 33 34 31 28 29 34 36 37 39 41 43 45 48 49 50 52 54 56 58 60 61 63 65 66 67 68 70 71 73 74 74 73 72 73 73 74 75 76 75 72 69 68 69 71 71 70 68 68 67
43 42 45 47 47 44 39 35 33 35 35 37 40 42 41 41 41 41 41 41 37 33 33 35 33 32 35 39 39 38 40 41 40 39 38 36 34 32 31 29 28 30 35 38 40 42 44 46 47 48 49 50 52 55 57 58 59 60 62 65 66 66 67 69 70 72 72 71 70 71 72 72 75 78 78 76 73 69 65 66 72 76 75 72 71 70 68
Wind_Speed
6 5 4 4 5 6 7 7 6 3 1 4 7 7 8 7 4 7 8 6 2 2 2 4 2 1 3 2 1 1 0 1 2 2 1 1 2 2 2 1 1 2 3 4 4 4 3 1 1 1 4 6 6 6 4 1 3 3 2 4 3 2 2 5 6 6 7 5 2 4 4 3 4 1 1 3 5 6 5 6 6 6 5 5 7 8 2
5 4 3 3 4 6 7 7 5 2 1 5 7 7 7 7 8 7 7 5 1 3 1 3 3 3 3 2 4 3 1 1 0 0 1 1 1 2 1 1 2 2 2 3 4 4 3 1 3 2 2 4 5 6 5 3 1 0 1 1 3 3 2 3 4 5 7 6 5 5 5 4 3 1 3 3 4 5 4 5 6 7 8 8 8 6 1
4 3 2 3 4 6 7 6 4 1 3 6 9 9 9 9 7 6 6 3 1 0 2 1 2 5 4 3 4 3 3 3 3 2 3 3 2 2 1 1 3 2 1 2 1 3 3 1 1 1 1 3 4 6 7 5 3 4 6 3 2 3 2 3 4 5 7 5 3 2 2 2 2 2 4 5 5 5 4 5 7 8 7 9 10 5 2
3 1 2 3 4 6 7 6 3 2 5 7 11 12 9 7 5 4 5 3 1 3 3 1 2 4 3 4 3 2 3 4 2 1 2 3 3 2 2 2 3 3 3 3 2 1 2 2 0 1 0 2 3 5 6 6 6 4 5 5 1 4 3 5 6 6 6 5 2 0 3 4 2 3 6 7 7 5 5 5 6 3 3 6 7 6 0
1 1 1 2 4 6 6 5 3 3 7 8 12 11 6 4 4 4 5 4 3 4 3 1 2 2 1 1 2 1 2 4 2 1 1 3 3 2 3 3 1 2 3 4 3 2 2 1 0 1 1 1 3 4 4 7 9 4 2 6 3 3 4 7 9 8 5 3 1 1 4 4 2 5 6 7 8 6 5 5 3 3 3 4 4 10 4
2 2 1 2 4 6 5 4 3 5 8 9 12 9 4 2 3 3 4 3 2 3 3 3 3 4 2 1 1 2 2 2 2 2 1 2 2 1 1 3 2 3 3 3 3 3 2 1 1 1 2 1 2 3 2 5 7 4 1 4 4 3 4 6 8 7 4 2 2 2 1 1 3 5 6 6 7 6 4 3 5 6 4 2 4 6 4
3 3 1 2 4 6 5 3 3 6 8 10 10 7 4 3 4 4 3 1 3 5 5 4 4 4 3 2 2 2 3 3 3 2 1 2 2 2 0 2 3 3 3 3 2 1 1 1 3 3 4 3 1 2 2 1 4 4 0 2 2 2 3 5 6 6 5 4 4 4 4 3 4 5 5 4 4 4 4 4 5 5 3 3 2 5 8
4 3 1 3 4 5 4 3 3 5 6 9 8 5 4 4 4 5 4 5 6 6 5 4 4 3 1 2 3 2 3 4 4 2 1 1 2 1 0 1 2 2 3 2 1 3 3 2 3 4 4 2 2 1 2 1 3 2 1 1 1 0 1 3 4 5 5 5 4 5 5 4 4 5 6 5 3 3 4 5 5 4 3 3 0 4 6
5 4 2 3 4 4 3 3 3 4 6 8 6 4 5 5 6 7 6 5 4 4 4 3 3 3 2 1 2 2 3 4 2 3 3 3 3 3 2 2 1 1 1 1 2 4 4 4 4 5 5 4 3 2 2 4 4 0 0 1 1 2 1 3 4 5 4 6 6 6 6 5 5 5 8 8 6 5 4 4 6 5 5 5 2 3 3
6 4 2 3 3 4 3 3 3 4 6 7 5 3 5 6 7 8 6 2 1 2 3 2 2 2 3 2 2 2 3 3 0 2 2 1 2 3 4 3 2 2 2 1 3 4 6 8 8 8 7 7 5 4 3 4 5 3 2 2 1 1 2 2 4 5 3 5 6 5 6 6 3 4 7 6 6 7 4 4 7 8 7 5 3 2 5
7 5 3 3 3 3 3 3 3 4 5 6 5 5 7 7 6 7 6 3 2 3 3 2 1 2 2 2 3 2 2 2 0 1 1 1 1 1 2 2 3 1 2 3 5 7 8 7 7 6 6 7 6 4 3 2 3 4 4 3 2 2 4 2 2 4 2 5 5 6 6 4 1 4 6 5 3 7 6 4 9 10 7 4 3 4 7
8 6 3 3 3 4 4 4 3 4 5 5 6 7 8 8 7 6 5 4 4 3 2 2 3 3 4 4 3 3 2 1 2 3 2 1 0 1 2 2 3 2 3 5 8 8 6 3 3 3 4 5 5 5 3 2 1 1 2 3 3 3 4 3 2 4 1 5 5 6 3 0 2 3 7 6 1 5 6 3 7 12 9 6 3 5 7
9 6 4 3 3 4 5 5 4 4 5 5 6 6 6 8 8 5 4 3 4 2 2 4 5 5 5 4 3 2 1 1 1 2 3 3 1 2 2 2 3 3 6 9 9 6 5 3 3 2 3 5 5 6 4 3 4 2 1 2 3 4 5 4 3 3 2 4 4 3 2 4 4 3 8 8 2 5 6 3 5 12 11 7 4 5 7
9 7 4 3 3 4 5 6 5 5 5 6 7 6 6 8 8 4 3 2 3 3 2 4 5 5 4 3 2 2 2 3 3 3 4 3 3 2 1 1 3 6 7 8 6 5 4 3 3 3 4 5 4 5 5 4 6 7 4 1 2 5 5 5 4 3 3 3 2 3 4 4 5 3 7 7 4 5 5 2 4 11 10 5 4 5 7
10 8 4 3 3 4 5 6 7 7 7 7 8 7 7 8 8 6 4 2 4 4 2 1 3 4 4 2 1 3 3 3 3 4 4 3 4 4 1 3 5 5 5 5 4 3 2 2 2 3 2 2 2 2 3 3 4 5 5 3 1 2 1 2 3 2 2 3 3 4 4 3 5 6 7 7 5 4 4 3 1 9 11 5 4 6 7
11 9 5 3 3 4 5 6 8 9 9 8 8 7 7 7 7 8 6 4 4 4 2 4 4 3 2 2 0 2 2 1 2 2 4 5 4 3 1 3 5 3 3 5 3 2 2 2 2 2 1 1 2 1 1 1 2 3 4 5 3 3 4 1 2 2 2 4 3 2 1 3 6 9 10 10 7 3 3 4 1 7 12 6 5 7 8
11 9 6 4 3 4 5 6 7 8 8 8 7 7 7 7 8 8 7 6 6 5 4 4 2 2 2 2 2 1 1 1 1 2 1 3 2 2 1 2 2 3 4 5 3 2 2 2 1 1 2 3 2 3 2 2 1 1 4 5 5 4 4 3 3 2 0 1 2 4 3 3 8 12 13 13 6 3 4 2 2 8 10 6 7 7 7
12 10 7 5 3 4 4 6 7 7 7 6 5 6 6 6 7 8 8 8 8 7 5 4 3 2 2 3 3 2 2 1 1 1 0 2 1 1 2 2 2 4 4 4 2 2 1 1 1 1 3 2 2 2 1 2 2 3 5 3 4 5 3 1 3 4 4 4 5 5 3 4 10 14 14 10 3 4 1 2 4 7 7 5 7 6 5
12 10 8 6 4 4 4 6 7 7 7 5 5 6 6 6 8 9 8 8 9 9 8 8 8 7 7 6 5 4 3 2 1 1 1 2 1 2 2 1 1 1 3 3 2 1 1 3 2 2 2 3 1 2 2 2 2 4 4 3 3 3 3 2 2 4 4 5 5 5 4 5 14 18 13 7 1 1 2 4 4 5 4 5 7 7 6
12 11 9 7 6 5 5 6 8 9 10 10 10 10 8 7 9 10 10 13 16 15 11 10 10 9 8 7 5 5 4 3 3 3 1 2 3 2 3 3 1 1 2 2 1 1 1 3 4 2 3 5 2 2 4 6 5 4 3 3 4 3 1 3 4 3 4 5 5 4 4 6 18 17 8 6 6 2 2 4 5 7 8 8 10 10 9
12 11 9 8 7 6 6 6 8 11 14 14 15 15 14 11 10 11 13 17 19 15 11 10 10 9 9 9 8 7 6 5 5 5 3 4 4 2 1 2 2 0 0 0 1 1 1 2 3 3 3 3 2 2 4 6 6 6 4 3 4 5 3 2 3 3 3 5 5 5 2 7 15 12 5 5 7 3 1 3 6 9 10 12 14 13 13
12 12 10 9 8 7 6 6 8 11 12 11 11 13 15 14 14 15 17 19 19 17 15 14 13 12 12 11 10 9 8 6 6 5 3 4 5 3 2 3 3 2 2 2 1 2 2 2 3 4 4 4 3 3 3 4 5 6 5 3 5 7 7 8 8 6 6 7 5 4 4 6 9 10 7 6 7 6 5 6 9 11 11 14 16 18 19
12 12 11 10 9 8 7 7 8 10 9 9 10 12 14 14 15 17 19 22 23 21 17 13 13 12 12 11 11 11 10 8 9 9 5 2 3 4 4 3 3 3 2 2 1 3 3 4 3 4 5 4 3 5 6 6 6 7 7 7 7 6 6 9 9 8 9 10 7 6 9 10 10 11 11 11 12 11 9 10 11 12 13 15 19 22 24
11 12 11 10 9 8 7 8 8 9 9 9 11 14 17 18 19 20 20 19 19 17 12 10 9 9 9 10 12 13 12 10 10 11 10 6 4 4 4 3 3 3 3 4 5 5 5 5 3 4 6 3 2 4 7 6 6 6 7 8 8 6 6 7 7 5 5 7 8 10 13 14 13 13 14 15 15 14 12 13 13 14 16 18 20 23 24
10 11 11 10 9 8 8 9 10 10 10 10 12 16 18 17 15 13 12 11 11 11 9 9 9 9 9 11 13 14 13 13 11 11 11 11 8 7 6 6 6 6 6 8 7 6 6 5 3 6 7 3 3 4 6 5 4 4 4 6 6 4 3 6 8 8 7 8 11 15 17 16 15 15 16 16 16 16 16 17 17 17 17 17 19 21 22
9 10 11 10 9 9 9 9 11 11 11 12 13 14 14 11 8 8 9 11 11 10 9 8 9 10 11 12 14 14 13 13 12 11 11 11 10 9 10 11 12 11 11 10 8 6 7 7 5 6 6 4 4 5 6 6 6 6 6 7 4 1 2 7 10 11 10 11 14 15 16 16 16 16 16 16 16 16 17 18 17 16 16 15 15 16 17
9 10 11 10 9 9 9 10 11 11 11 12 12 12 10 8 10 13 14 11 7 7 7 8 10 11 12 13 14 13 12 12 12 11 11 10 8 8 10 12 12 10 10 10 9 9 11 10 7 7 8 8 8 8 7 8 8 8 7 6 4 4 6 7 8 8 7 8 9 9 10 11 13 14 15 14 14 15 15 15 14 13 14 14 13 12 13
9 10 10 10 10 9 9 9 10 10 11 11 11 10 8 7 10 13 9 3 2 6 10 11 11 10 10 11 12 11 11 12 12 11 12 11 9 8 9 8 7 6 7 9 9 10 10 9 8 8 8 7 6 7 8 8 8 8 7 7 7 5 4 3 6 8 8 9 9 8 11 13 13 13 13 13 13 14 13 12 11 11 11 11 11 11 11
9 10 10 11 11 10 9 9 10 10 10 10 10 9 7 6 7 7 3 4 10 14 14 12 9 7 7 8 9 9 10 12 12 11 12 12 11 11 10 9 9 9 10 12 13 12 11 9 7 7 6 3 2 5 7 7 7 8 8 9 10 8 7 8 11 13 12 13 12 12 14 15 13 12 12 12 11 11 12 12 10 9 9 8 8 8 9
9 10 11 11 12 11 9 9 9 9 10 11 11 9 7 6 6 5 7 12 16 14 11 9 8 6 7 8 9 8 9 11 12 13 14 14 15 14 13 13 13 12 12 14 14 11 10 9 8 6 5 4 2 4 6 6 7 9 10 11 11 11 10 12 13 13 14 14 13 13 15 15 13 12 11 10 9 9 10 10 9 8 8 7 6 5 5
9 10 11 12 12 12 11 10 10 9 10 11 9 6 6 6 7 8 12 15 13 9 9 10 8 7 7 8 8 8 9 10 12 13 15 15 14 14 14 14 14 13 14 15 14 11 8 8 7 5 4 4 3 4 7 7 7 8 11 12 13 13 13 13 13 15 16 15 14 14 14 12 11 9 9 8 7 8 9 9 8 8 8 6 5 5 4
10 11 11 12 12 12 12 11 10 9 9 8 5 4 6 9 11 12 13 11 9 8 9 9 6 5 5 5 6 6 8 9 9 10 11 11 11 12 14 14 14 15 15 12 11 9 8 7 9 9 7 6 5 5 7 7 8 9 12 13 13 14 14 14 14 15 14 12 11 11 11 9 7 8 8 8 7 7 8 8 8 8 8 7 6 5 5
11 11 12 12 12 13 13 12 11 9 8 6 5 6 9 11 13 13 11 10 9 7 6 5 3 3 4 4 4 5 6 6 6 8 9 10 9 9 11 11 11 12 12 9 7 6 5 8 13 12 9 8 8 7 7 8 9 11 12 12 13 14 14 13 13 12 11 8 7 8 9 9 8 8 8 7 7 7 7 7 6 6 6 5 5 5 4
12 12 12 12 12 12 13 12 11 9 7 7 8 9 10 12 13 13 11 9 8 6 4 3 3 4 4 4 3 5 5 4 5 6 7 9 9 7 8 9 9 10 10 9 7 8 7 9 11 10 8 10 10 8 6 9 11 12 12 12 12 12 12 12 11 10 9 8 8 9 9 8 7 7 7 6 6 5 5 5 4 3 3 3 3 2 2
14 14 13 12 13 13 12 12 10 8 7 8 9 9 10 12 13 13 11 8 6 4 3 2 2 4 5 4 3 5 6 6 6 6 5 8 9 8 7 9 9 7 6 5 7 9 8 5 4 6 7 8 7 6 6 9 11 11 11 11 10 9 9 9 8 8 7 7 8 8 7 6 6 6 5 4 4 3 3 2 1 1 1 1 1 1 1
15 15 14 14 15 14 11 10 10 8 7 9 10 10 11 11 11 11 10 6 3 3 4 3 2 2 3 4 4 5 4 5 7 6 4 6 7 6 6 8 8 5 3 4 7 8 6 2 2 5 6 5 6 7 7 9 10 10 9 9 7 6 6 6 5 5 6 6 6 6 5 5 4 3 3 2 2 1 1 1 1 1 2 2 3 3 3
16 15 15 15 14 12 9 8 9 8 8 10 12 12 12 11 10 9 6 4 3 4 3 3 2 2 2 3 5 3 1 3 5 4 4 4 4 5 6 7 5 2 2 5 7 6 4 3 3 6 6 6 7 8 8 8 9 9 8 7 5 4 4 4 4 4 4 4 4 3 3 3 3 2 1 1 1 1 0 1 1 1 2 3 3 4 4
16 16 15 13 10 7 6 7 9 10 12 14 13 11 10 8 7 6 4 3 4 4 2 1 4 4 2 3 4 2 1 2 4 4 3 3 2 3 4 4 2 1 3 5 5 4 4 4 4 6 7 8 9 9 9 9 10 9 8 7 5 4 3 3 4 3 3 3 3 2 1 1 2 2 1 1 0 1 1 1 0 1 2 3 4 3 4
16 14 12 9 6 5 6 9 12 14 15 13 9 7 5 4 4 4 2 2 3 4 2 2 4 3 2 3 4 3 2 2 4 4 3 2 1 1 2 2 1 1 3 5 3 2 2 4 5 5 6 8 9 9 8 8 9 9 8 8 8 6 5 5 5 5 3 3 4 3 2 2 2 2 1 1 0 1 1 1 0 1 3 4 4 3 3
14 11 8 6 5 7 10 14 15 14 11 7 4 4 4 2 1 2 2 2 3 2 2 2 5 4 2 2 4 4 2 1 1 3 5 3 2 1 3 3 1 2 4 5 2 2 2 5 5 4 5 8 9 9 8 8 9 9 9 9 9 8 8 8 7 5 4 3 3 3 2 2 2 2 2 1 2 2 1 2 2 2 4 5 5 3 2
12 9 7 7 9 12 15 15 13 9 5 4 3 3 2 2 2 1 2 3 3 3 2 3 6 5 3 3 4 5 5 5 5 4 5 4 3 1 3 4 1 1 3 4 2 2 3 4 4 4 6 10 11 10 8 8 9 9 9 9 9 9 8 8 7 5 4 3 2 2 2 2 2 2 2 2 3 2 2 2 2 3 4 5 5 4 2
11 9 10 12 14 16 14 10 6 4 2 2 2 2 1 2 3 2 2 1 2 4 4 3 4 6 7 6 5 5 5 5 3 2 3 3 2 1 2 3 2 2 3 4 3 3 3 4 4 5 8 12 12 10 9 9 8 8 8 9 9 8 8 6 6 6 5 4 3 3 3 3 2 2 2 2 3 3 3 3 3 4 5 5 4 4 3
11 13 15 14 13 11 8 5 3 2 1 1 2 2 1 2 2 1 1 2 3 5 5 5 6 8 8 6 5 5 5 4 3 2 2 3 2 1 2 2 1 1 3 4 4 4 4 4 4 6 11 13 12 10 9 8 7 7 7 7 7 7 6 5 5 5 5 4 4 4 4 3 2 2 2 3 3 4 4 4 4 5 6 6 5 5 4
14 14 13 9 6 5 5 3 1 1 1 1 2 2 3 3 3 2 3 5 5 6 7 8 8 7 5 4 4 4 4 3 2 2 3 3 2 1 2 2 2 3 3 4 4 3 3 3 4 9 14 14 11 10 9 7 6 6 5 4 3 3 3 3 2 2 2 3 3 4 4 4 3 3 3 3 4 5 6 6 6 6 7 7 6 6 6
13 11 8 5 2 2 2 1 0 1 1 2 2 3 3 4 4 3 4 6 7 8 9 8 7 7 7 5 3 2 2 3 3 2 2 2 2 2 2 3 3 3 3 3 3 3 3 3 6 12 15 14 11 10 8 6 5 4 3 2 2 1 0 1 2 2 3 3 4 5 5 5 5 5 4 5 5 6 7 7 7 7 8 8 7 7 7
9 7 6 4 1 1 0 1 2 2 2 2 2 2 2 3 4 6 7 8 9 10 11 8 7 8 7 4 2 3 3 3 3 2 0 2 2 2 2 2 2 2 3 3 4 4 4 5 9 14 15 14 12 10 8 6 4 3 2 2 2 2 2 3 3 4 5 6 6 6 7 7 7 7 7 7 8 8 8 8 8 8 8 8 8 7 7
7 6 4 2 1 1 1 1 1 1 1 2 2 1 4 7 10 11 10 10 10 11 11 8 6 7 6 4 3 4 4 3 2 2 0 1 3 3 1 1 2 2 3 4 5 4 3 7 12 15 15 13 11 9 7 5 4 3 2 2 2 2 2 2 3 4 5 7 7 7 7 7 7 8 8 9 9 9 9 9 9 9 8 8 7 7 8
6 5 2 1 2 2 2 2 3 3 3 3 4 6 8 11 11 11 11 11 11 11 11 8 7 7 5 3 2 3 4 3 3 2 1 1 3 3 2 2 2 2 2 3 4 3 5 9 14 15 14 12 10 8 6 4 3 2 2 2 1 1 1 2 3 4 5 6 6 6 6 7 7 8 8 9 9 9 9 10 11 11 10 9 9 8 9
5 4 2 1 2 2 2 3 5 5 5 6 7 9 10 11 11 11 12 12 10 9 8 6 5 5 4 2 2 3 3 2 2 2 2 2 2 2 2 3 3 3 3 2 2 5 9 13 15 14 13 10 8 6 5 4 3 2 2 1 1 1 2 3 4 5 5 5 5 4 5 6 6 7 7 8 8 8 8 10 11 11 11 11 10 10 10
3 3 2 2 2 3 4 5 5 6 7 9 9 9 11 12 12 12 11 10 10 9 8 5 4 3 3 2 2 2 2 1 1 3 3 3 2 2 2 3 3 3 3 4 5 9 13 14 14 13 11 9 7 5 4 2 2 1 1 1 1 2 3 4 4 4 4 3 3 4 4 5 5 6 6 7 8 8 9 10 11 10 10 10 11 11 10
3 3 2 2 2 4 6 7 7 7 9 10 10 11 11 11 11 12 12 11 9 8 6 4 4 3 3 2 2 2 3 2 2 2 2 2 2 2 3 2 2 3 5 8 10 12 13 13 12 10 9 7 5 4 2 1 1 1 1 2 2 3 3 4 3 3 2 2 3 4 5 5 6 7 7 8 8 9 9 9 9 8 9 10 10 11 10
2 3 2 2 3 4 6 7 9 10 10 10 10 10 10 10 11 12 12 10 7 6 5 5 4 3 2 2 2 3 3 2 2 2 2 2 2 2 1 2 4 6 9 11 12 11 11 11 10 9 7 5 3 2 1 0 1 1 2 2 3 3 3 3 2 3 3 3 4 5 6 7 8 8 8 8 8 9 9 8 7 7 8 9 10 11 10
Wind_Direction
320 305 298 298 307 320 329 343 355 1 46 156 162 161 175 180 131 134 165 160 141 246 184 136 176 149 95 87 106 94 302 218 171 163 205 231 215 221 240 290 338 24 11 341 341 358 2 63 95 85 94 75 39 24 23 294 244 238 182 117 134 200 241 250 250 255 257 247 149 149 173 209 224 203 10 301 273 268 267 264 261 253 243 241 252 252 184
319 295 292 300 314 327 335 346 350 353 129 159 163 163 167 148 118 134 165 155 175 252 164 138 146 111 111 141 130 118 71 31 25 188 54 18 284 244 224 8 349 19 9 327 338 359 346 95 76 54 104 76 45 31 15 336 310 10 38 142 199 217 210 237 254 258 243 224 198 179 181 223 241 94 46 356 313 292 267 246 250 246 236 236 249 260 143
309 286 288 303 324 336 341 346 341 274 165 163 157 152 155 145 122 136 161 146 110 353 53 70 120 117 123 121 115 137 126 67 23 16 46 32 350 310 336 355 325 325 315 278 317 5 349 11 57 34 114 96 67 32 19 18 37 24 20 38 215 234 186 194 232 246 240 240 235 205 207 263 278 39 21 8 350 304 266 243 239 237 238 236 242 258 125
296 254 276 312 338 344 348 348 337 180 163 159 154 152 159 164 148 145 160 164 132 99 76 28 125 125 129 112 97 159 145 106 63 3 54 60 37 12 21 347 295 297 301 270 244 345 343 337 307 223 115 99 73 38 30 36 35 16 23 40 215 233 195 192 212 224 246 286 333 313 285 284 291 356 1 7 357 319 274 253 247 254 271 246 259 295 227
269 206 269 334 352 351 355 355 356 157 161 157 154 157 173 188 171 156 161 169 166 149 143 128 105 111 147 121 79 86 151 137 128 80 41 57 48 23 35 21 308 312 315 280 266 294 281 264 294 333 351 87 107 87 58 35 27 7 12 49 54 252 219 198 211 217 230 291 357 214 270 287 350 7 0 1 356 333 271 253 303 347 263 234 322 339 326
182 182 248 355 2 0 2 6 45 131 156 159 157 165 192 190 136 144 174 180 166 152 138 119 111 106 100 95 88 95 120 147 136 103 96 76 26 333 73 54 42 30 349 285 267 276 249 205 39 25 0 343 161 140 97 34 29 21 336 81 88 261 238 185 202 216 194 184 190 189 231 29 56 38 14 355 355 353 316 304 351 341 290 268 4 6 26
175 174 157 24 16 11 10 22 75 121 147 159 165 173 181 152 118 128 166 139 84 92 103 126 130 106 89 105 101 78 80 99 98 67 148 132 39 349 177 77 50 45 12 301 283 311 282 75 59 32 1 345 266 193 146 63 28 40 29 165 123 267 244 174 196 213 177 170 186 172 159 117 81 59 32 359 350 4 0 355 344 320 315 0 46 88 64
174 169 121 41 29 23 20 40 95 123 143 159 172 177 174 171 143 136 141 109 97 103 116 145 140 120 155 142 99 75 66 82 90 63 25 99 75 19 2 63 39 31 12 326 58 54 28 29 42 9 339 336 325 331 75 14 341 37 33 303 91 196 216 160 195 217 181 173 181 169 170 153 105 68 39 19 5 9 8 7 354 320 323 350 39 116 72
170 162 111 53 40 36 31 49 98 124 140 151 165 183 189 179 155 158 156 118 112 134 131 154 155 131 153 134 113 126 75 64 85 89 52 25 44 40 16 20 10 246 285 292 93 65 21 336 333 323 299 300 327 335 16 351 321 298 13 279 214 224 229 163 208 236 195 183 195 178 173 177 142 74 30 15 10 7 6 20 21 4 344 332 275 148 99
167 161 113 64 50 45 42 55 96 124 139 141 148 177 185 171 157 170 176 134 155 183 141 163 183 107 84 84 108 113 77 69 142 131 97 39 37 37 13 352 307 241 214 110 50 20 335 314 308 298 280 279 289 288 304 311 296 296 315 302 291 296 283 207 218 242 182 170 198 189 187 207 178 64 12 354 357 356 355 30 24 3 341 325 319 64 101
169 159 119 75 62 55 44 50 94 130 143 142 145 155 165 166 160 175 190 160 150 189 177 170 149 95 99 126 138 134 113 118 322 1 114 134 74 3 347 321 300 297 84 45 2 329 312 303 293 281 266 259 256 255 264 254 259 282 291 292 314 308 289 278 243 259 200 150 188 210 213 231 153 68 8 337 346 359 353 11 12 357 338 336 15 86 121
168 158 132 92 64 54 43 43 83 130 141 143 151 151 158 167 163 177 207 177 142 188 204 89 72 108 136 147 154 153 146 133 20 358 339 4 16 239 250 283 297 30 35 343 322 309 295 268 240 235 231 227 210 198 197 153 116 265 255 275 294 292 286 274 240 271 255 139 183 222 225 351 151 111 19 358 309 348 332 311 13 8 348 347 55 119 124
166 161 146 103 63 48 46 46 75 122 136 144 153 150 152 162 160 171 215 182 139 172 166 99 98 125 139 146 165 161 159 257 337 322 285 279 248 217 222 264 312 345 332 318 311 291 262 229 220 208 178 174 170 173 172 102 45 22 151 217 262 264 263 248 230 262 244 187 201 216 129 85 141 142 22 10 333 343 331 270 39 20 355 355 60 104 110
167 167 155 109 66 45 44 50 72 107 127 140 147 146 148 158 157 160 200 189 116 103 125 133 135 143 144 149 189 213 216 230 241 240 236 238 242 242 228 269 309 319 316 309 292 254 237 223 226 216 177 175 185 183 166 107 41 19 23 54 249 254 254 248 228 213 231 230 116 111 146 112 90 54 14 11 343 341 333 274 39 22 6 21 86 108 113
170 171 158 116 74 48 46 53 70 94 113 125 130 130 138 154 162 160 163 157 132 131 138 119 130 149 159 153 259 265 242 225 237 225 195 202 240 242 237 287 295 305 304 291 263 227 231 241 241 245 224 214 236 218 180 133 71 40 30 23 304 241 265 295 256 208 244 245 161 138 184 138 56 13 2 4 335 310 297 259 33 18 9 30 110 118 114
173 173 161 128 85 58 52 56 71 87 98 109 119 122 128 143 156 157 154 142 138 140 99 67 88 141 158 125 144 275 274 256 257 229 185 182 211 220 244 293 293 289 269 258 245 219 223 229 245 283 310 12 348 294 294 1 127 108 65 55 78 122 122 80 276 249 264 243 197 129 117 82 23 353 347 345 329 276 243 234 130 12 1 28 108 113 112
175 173 161 137 101 75 62 63 73 81 85 93 104 115 126 136 139 140 140 126 107 90 82 94 121 181 178 140 139 149 335 320 269 273 203 155 169 199 273 292 253 232 245 247 228 204 199 202 235 306 59 48 342 276 312 0 44 62 25 39 63 87 131 172 214 226 304 185 124 85 76 48 1 343 337 336 324 203 210 230 62 11 360 41 93 101 103
174 171 160 145 122 92 74 71 74 75 77 83 94 108 123 140 145 138 131 123 110 90 87 99 96 105 99 74 82 84 11 338 237 266 244 127 132 310 339 323 217 209 235 244 217 182 159 122 15 29 78 64 313 283 333 339 354 11 359 11 55 56 59 149 169 137 102 104 105 92 84 33 353 336 334 337 300 187 187 344 358 351 355 51 69 71 86
172 169 161 149 134 111 89 80 76 74 72 79 100 111 111 123 141 140 129 119 112 103 101 98 90 89 90 84 87 90 66 38 357 283 203 140 74 343 312 269 235 214 224 223 203 164 130 108 80 57 96 113 102 76 78 44 7 8 1 7 31 26 24 53 110 118 106 113 111 102 103 41 353 335 332 349 340 190 31 3 340 351 25 73 60 59 87
169 166 162 152 141 129 109 95 91 90 87 88 96 100 99 113 134 137 129 119 112 108 102 97 93 90 84 77 71 65 59 44 19 4 25 60 22 292 219 182 180 219 202 189 160 104 85 105 112 96 89 99 110 109 93 79 50 20 20 46 36 352 337 77 73 68 89 101 86 79 94 10 349 341 343 13 13 20 37 17 28 51 69 84 76 73 96
166 164 161 152 144 139 126 113 110 109 101 93 90 90 91 103 125 139 138 127 115 110 110 104 96 89 77 67 59 50 41 25 13 7 16 36 21 304 226 89 52 319 254 29 103 115 72 89 110 113 98 103 143 171 112 92 70 44 27 42 34 3 346 73 48 2 44 84 67 51 31 335 343 357 24 15 7 23 85 60 67 71 77 87 86 83 93
165 163 160 153 147 144 137 127 126 125 112 93 92 101 100 102 116 132 135 124 111 108 112 106 92 81 72 67 62 54 46 37 31 22 10 32 37 25 44 59 47 39 9 334 63 109 114 121 112 108 103 96 99 113 103 89 83 61 32 36 54 41 51 76 70 48 57 72 68 47 32 4 5 27 41 33 40 64 86 91 85 78 83 95 98 98 101
164 163 160 155 150 147 144 137 135 138 125 96 95 115 117 114 121 126 122 114 108 106 106 100 89 76 61 55 58 55 49 47 46 42 34 27 49 58 57 55 64 65 22 323 353 66 93 108 101 96 95 77 76 101 92 77 84 78 66 75 82 71 71 81 87 92 85 74 69 72 67 59 54 53 54 58 67 75 81 86 86 87 95 103 107 109 109
161 163 159 155 150 146 146 143 139 140 135 115 105 114 119 120 122 119 112 109 111 109 99 85 79 67 52 53 57 55 53 53 51 51 50 41 39 65 65 57 74 77 64 73 78 79 88 88 82 97 93 44 10 91 92 82 85 86 88 93 90 82 86 90 98 121 111 78 73 83 85 81 77 72 71 71 73 77 81 85 92 100 105 108 112 114 112
156 161 158 153 148 142 140 143 143 140 134 127 122 123 121 118 117 119 119 119 118 115 104 85 74 68 65 62 58 53 56 58 53 52 55 50 47 61 76 84 94 99 103 103 96 90 95 97 102 106 94 19 345 71 88 86 74 70 89 97 85 73 86 90 92 99 100 97 96 93 89 87 84 81 80 80 82 85 88 92 99 104 107 110 113 114 112
152 156 155 150 147 140 133 138 146 145 136 131 134 138 134 120 107 121 136 127 109 102 104 96 83 75 70 65 60 54 53 55 52 47 50 56 62 72 82 90 94 97 102 102 89 80 91 92 91 100 93 55 40 69 86 88 79 73 76 69 58 101 125 99 100 102 101 107 109 104 96 90 85 83 85 88 92 96 98 101 104 106 109 113 114 113 112
155 155 152 149 146 139 129 129 139 146 144 140 141 147 147 128 113 122 130 126 107 101 110 110 100 87 74 66 65 60 54 54 52 46 44 52 68 88 96 95 92 90 94 94 86 85 90 85 77 84 92 88 78 76 84 86 81 84 78 51 42 110 117 110 115 115 110 115 116 110 106 101 92 92 94 95 98 102 104 108 112 114 117 119 119 118 117
163 162 159 154 150 143 131 125 130 141 150 152 150 149 149 139 133 135 135 128 113 122 121 117 111 102 84 67 60 60 64 64 60 54 52 55 69 99 114 110 99 91 91 93 91 90 90 89 90 93 98 99 88 85 92 89 78 78 68 39 39 63 65 78 109 107 106 115 113 103 107 109 105 102 101 96 97 98 96 101 111 120 125 127 127 127 129
168 168 165 161 158 151 142 130 123 128 142 153 156 153 147 141 145 152 162 136 124 122 121 118 109 95 82 66 54 56 68 71 68 65 65 69 79 94 108 111 102 94 92 93 93 92 87 81 82 85 83 78 83 99 101 90 76 75 66 54 59 63 50 64 94 106 110 113 112 110 113 113 110 107 103 98 95 91 88 90 98 107 117 124 127 131 136
169 167 166 166 163 160 154 142 129 124 130 136 141 143 143 139 136 133 137 137 131 123 121 121 109 90 80 69 58 60 70 73 73 72 72 77 84 89 95 97 93 90 92 91 90 91 92 87 80 74 63 48 70 108 105 91 84 83 75 71 79 85 75 73 90 107 113 111 109 110 112 113 113 110 104 100 95 91 90 90 91 95 103 108 110 117 128
164 162 163 166 166 165 161 150 139 134 132 132 138 149 150 143 138 138 141 141 136 123 115 116 115 115 99 68 55 66 79 80 80 78 74 73 76 82 89 90 85 84 88 89 83 80 85 87 87 92 86 62 66 97 101 96 94 89 84 85 90 93 91 88 92 104 111 111 109 108 109 112 116 112 106 107 104 97 94 94 95 101 106 103 103 109 117
158 157 160 164 166 166 164 155 147 144 141 138 145 157 146 140 143 148 149 144 138 130 122 116 118 130 116 74 56 71 88 89 84 77 73 69 69 77 84 85 84 83 84 85 82 75 69 77 89 95 87 69 70 93 95 91 93 94 92 94 95 96 99 101 101 107 113 111 106 108 110 109 104 100 104 111 110 101 95 95 99 105 106 102 102 108 113
153 152 157 161 164 165 164 159 151 143 135 125 120 130 140 144 147 152 152 143 136 131 120 112 120 125 115 105 83 70 80 94 88 73 72 72 70 76 82 79 77 75 69 66 77 83 80 94 100 95 76 65 77 92 90 87 96 102 99 98 99 100 103 104 104 107 107 96 81 91 104 104 97 99 108 115 115 109 104 100 100 103 103 96 92 99 109
149 149 151 154 159 162 163 161 153 139 127 121 120 128 140 146 150 154 153 143 135 124 97 91 118 120 123 141 116 67 63 84 86 72 73 75 74 82 91 86 77 70 63 64 87 103 97 96 102 99 84 79 85 91 92 96 104 107 104 103 106 108 108 108 103 98 97 92 82 84 95 103 106 108 111 113 116 119 117 110 101 91 83 74 70 87 124
147 147 145 145 149 152 155 158 150 136 129 128 126 131 140 145 151 156 152 146 142 129 105 107 143 131 131 140 112 75 67 74 75 67 73 83 78 72 86 94 85 68 56 67 95 104 95 78 92 108 99 88 87 90 98 105 109 110 109 107 108 110 110 109 105 99 99 103 100 94 94 98 103 105 106 107 116 125 127 125 107 44 6 358 353 314 240
145 142 139 139 141 140 144 150 146 137 135 136 134 135 137 140 148 153 152 152 147 118 121 149 165 132 120 114 103 94 88 89 88 80 83 96 82 59 75 99 89 56 45 85 96 98 89 46 77 113 106 93 87 85 86 96 103 105 105 103 98 96 94 94 103 108 104 102 103 99 91 87 88 91 98 104 115 129 163 207 232 289 307 315 316 296 270
145 142 138 136 135 131 133 144 147 144 142 138 135 131 128 130 137 140 137 130 104 101 127 155 123 80 71 88 103 124 144 121 116 104 83 89 83 54 64 93 95 63 91 97 86 79 74 65 92 105 96 86 87 84 80 85 90 90 93 96 94 90 85 85 104 120 120 118 116 104 88 81 75 67 72 98 118 141 171 232 259 304 324 324 317 296 273
146 143 139 137 135 131 135 146 148 144 138 133 128 123 120 125 131 122 100 76 87 91 87 101 101 104 113 101 99 110 126 128 140 131 87 73 95 82 68 76 84 128 116 97 83 77 82 84 95 101 96 95 98 94 90 91 89 85 85 85 81 79 88 101 115 127 133 133 119 97 63 42 37 18 346 336 39 132 129 120 85 16 352 342 331 305 272
146 145 144 144 142 140 144 145 143 138 133 128 124 119 117 126 137 124 93 57 90 97 86 92 105 111 131 113 100 91 93 135 157 148 121 71 44 110 112 91 88 150 137 118 116 150 129 110 114 118 117 117 114 106 102 100 96 90 85 79 73 76 96 115 123 116 96 76 66 50 13 348 347 336 320 311 267 188 166 173 283 352 347 339 333 318 281
148 149 149 148 145 142 141 140 138 135 130 124 117 114 115 108 98 116 139 145 123 92 60 99 110 96 70 101 112 107 91 58 83 117 119 96 47 78 124 108 94 170 145 124 132 217 157 128 133 137 131 128 125 120 115 108 99 91 85 79 76 79 88 98 104 101 86 65 45 30 17 2 337 309 297 289 267 243 232 252 278 327 341 336 334 331 305
153 156 155 150 144 140 137 135 134 129 126 123 109 89 85 87 79 110 174 166 128 101 98 129 136 128 103 88 105 109 98 76 63 83 105 91 53 74 123 109 108 196 137 115 136 189 149 139 153 152 133 131 133 131 122 110 100 92 86 80 77 78 80 82 80 76 70 54 24 5 356 343 312 284 273 271 264 256 251 258 280 318 332 330 330 331 316
156 157 149 142 138 134 133 132 130 118 111 118 95 57 57 126 136 157 194 154 116 129 139 136 129 124 114 100 95 102 105 98 89 106 121 94 55 57 110 120 169 193 118 115 155 178 152 148 162 150 135 136 139 137 128 118 110 102 95 89 84 82 82 81 75 67 60 49 34 15 356 343 321 284 268 263 258 253 252 262 285 306 315 317 317 310 299
149 145 140 135 133 133 132 128 120 110 103 107 110 111 143 165 168 168 137 116 125 140 137 127 123 123 119 107 96 98 104 106 95 78 91 104 105 107 119 135 165 116 109 139 182 181 163 170 171 151 145 146 146 143 137 128 119 113 108 101 95 90 85 81 75 65 55 45 35 22 7 353 329 293 274 260 253 254 260 270 286 300 305 305 302 294 286
142 140 137 130 127 134 136 118 91 109 132 163 169 169 169 169 176 178 155 151 154 148 141 148 156 149 127 112 113 112 110 113 104 83 92 115 134 141 129 126 114 109 135 170 185 160 152 169 155 144 146 150 149 147 143 137 130 127 119 107 103 99 88 78 64 42 26 16 8 357 348 337 320 302 281 261 256 264 274 281 289 296 299 297 293 286 278
143 143 142 130 102 118 135 125 201 208 189 182 190 190 177 170 173 163 133 137 146 144 142 149 155 140 123 120 125 118 116 125 116 98 116 143 132 88 87 108 119 140 164 175 169 159 166 170 152 147 151 154 155 153 151 146 143 142 136 131 146 164 283 314 306 310 311 312 316 319 317 312 304 291 278 267 264 270 277 282 286 291 292 289 287 284 279
148 151 151 134 62 342 230 155 174 196 190 168 175 197 180 146 133 123 123 131 139 140 139 140 140 133 129 127 110 102 120 130 111 76 140 173 121 82 76 121 144 162 174 173 173 179 178 163 156 157 158 156 154 153 153 153 155 162 178 193 200 229 266 274 283 293 293 290 293 297 297 295 293 288 284 280 276 275 276 279 283 288 288 284 281 280 279
150 155 154 131 120 183 208 179 133 105 110 135 135 101 102 109 112 120 130 136 136 133 130 126 121 118 117 118 121 117 118 119 99 64 337 150 112 100 139 187 169 167 178 180 184 187 163 145 149 154 155 153 152 153 155 159 168 185 207 217 220 236 257 269 283 288 287 288 290 290 289 289 289 289 289 289 285 281 276 272 276 284 287 283 278 275 275
157 163 168 149 150 164 180 157 128 106 95 106 108 111 120 122 120 124 131 133 133 135 136 136 134 127 117 112 129 123 114 114 112 93 59 111 123 132 170 180 163 172 196 196 192 177 147 140 143 146 147 149 150 151 153 157 164 174 182 187 197 228 267 290 295 293 293 296 295 292 290 290 288 287 289 290 290 286 279 272 274 281 284 280 276 275 276
154 153 144 130 129 123 135 150 143 127 118 119 121 127 133 126 117 122 132 135 134 135 134 133 137 137 126 118 126 124 120 123 129 129 146 157 153 154 169 170 168 180 197 200 169 138 132 135 138 140 141 144 144 145 149 152 150 155 170 176 205 272 298 307 304 301 304 305 301 299 300 298 293 290 290 288 287 287 283 277 276 278 279 276 274 276 279
140 140 148 156 145 135 150 161 153 135 132 134 134 135 133 125 121 127 135 134 132 136 136 129 118 113 116 132 147 135 119 111 134 155 163 160 150 154 171 181 185 180 167 153 141 132 131 134 137 137 138 141 142 141 144 144 135 154 196 229 278 300 307 312 309 306 307 306 310 316 317 309 302 298 296 295 294 292 288 284 281 278 274 272 273 275 280
142 148 165 180 164 150 154 158 152 143 143 145 142 137 131 129 132 138 139 139 146 155 153 138 124 125 135 151 150 130 123 133 160 169 159 137 145 172 180 181 175 146 132 130 133 133 134 139 143 142 140 141 140 137 138 145 156 223 266 295 311 315 317 319 316 311 312 316 321 326 324 313 305 301 299 299 301 298 292 288 284 276 270 270 272 274 278
152 148 144 153 159 157 152 146 140 137 136 135 134 131 128 128 134 139 143 150 160 157 140 133 146 162 158 138 126 127 132 142 163 167 150 142 174 206 163 101 115 129 132 133 134 133 132 137 141 140 137 136 135 135 149 233 285 292 300 313 318 319 322 322 318 320 327 324 320 319 316 309 303 298 297 299 303 303 299 293 285 277 274 272 270 270 272